Location: Bishop�s Knoyle
(51.0728°N, 2.1714°W)
Time: 22:13:46
(UTC+00:00)

Envisat - Pass Details

Date: 26 September 2021
Orbit: 764 x 766 km, 98.2° (Epoch: 21 October)

Event Time Altitude Azimuth Distance (km) Brightness Sun altitude
Rises 04:57:57 0° 18° (NNE) 3,245 6.7 -10.7°
Reaches altitude 10° 05:00:22 10° 24° (NNE) 2,314 6.0 -10.4°
Maximum altitude 05:05:17 47° 98° (E) 1,013 4.2 -9.6°
Drops below altitude 10° 05:10:09 10° 172° (S) 2,296 5.5 -8.8°
Sets 05:12:32 0° 179° (S) 3,217 6.2 -8.5°
